STARLINK-34672

Last updated on Mon Oct 20 2025 00:02:08 GMT+0000 (Coordinated Universal Time)

1 65894U 25224N 25292.25002315 -.01209630 00000+0 -53704-2 0 9998 2 65894 53.1509 313.3896 0001057 84.1971 89.0804 15.86101038 3154
UTC large
Height (km)
Speed (km/s)
/
Latitude / Longitude
Inclination (degrees)
Orbital Period (minutes)
Azimuth
Elevation
Range (km)
Doppler Factor

Next 0 passes for location: London (51.5072 / 0.1276)

Sorry there are no passes over London.